Location: Newark
(36.0797°N, 3.9744°E)
Time: 22:58:34
(UTC+00:00)

Vanguard 2 - Pass Details

Date: 07 December 2019
Orbit: 553 x 2938 km, 32.9° (Epoch: 21 January)

Event Time Altitude Azimuth Distance (km) Brightness Sun altitude
Exits shadow 01:01:12 31° 100° (E) 4,262 11.2 -67.0°
Drops below altitude 10° 01:09:09 10° 82° (E) 5,613 12.1 -65.6°
Sets 01:13:28 0° 77° (ENE) 6,463 12.6 -64.8°
